GW0828 Weather Reports


Display with metric or nautical units.
time (UTC)temp
F
wind
direction
speed
MPH
gust
MPH
rain 1hr
in
rain 24hr
in
rain mn
in
humidity
%
barometer
mb
20260831123058 58 347 1.0 4.0 0.00 0.00 0.00 79 1020.1
20260831122540 59 347 1.0 3.0 0.00 0.00 0.00 81 1020.1
20260831122038 58 347 0.0 3.0 0.00 0.00 0.00 80 1020.1
20260831121556 59 347 0.0 3.0 0.00 0.00 0.00 79 1020.2
20260831121038 59 0 0.0 8.0 0.00 0.00 0.00 79 1020.1
20260831120537 59 347 1.0 8.0 0.00 0.00 0.00 79 1019.9
20260831120052 58 347 2.0 6.0 0.00 0.00 0.00 79 1020.0
20260831115538 58 0 0.0 4.0 0.00 0.00 0.00 80 1019.8
20260831115038 58 0 1.0 4.0 0.00 0.00 0.00 79 1019.8
20260831114601 58 347 2.0 4.0 0.00 0.00 0.00 78 1019.9
20260831114039 59 0 2.0 4.0 0.00 0.00 0.00 78 1020.2
20260831113539 59 347 0.0 4.0 0.00 0.00 0.00 78 1020.1
20260831113110 59 0 0.0 4.0 0.00 0.00 0.00 79 1020.0
20260831112539 59 347 2.0 4.0 0.00 0.00 0.00 79 1019.7
20260831112039 59 0 0.0 4.0 0.00 0.00 0.00 78 1019.8
20260831111558 59 347 1.0 3.0 0.00 0.00 0.00 79 1019.9
20260831111038 59 347 0.0 4.0 0.00 0.00 0.00 78 1019.8
20260831110538 58 347 1.0 4.0 0.00 0.00 0.00 78 1019.7
20260831110055 58 347 1.0 4.0 0.00 0.00 0.00 79 1019.6
20260831105538 58 347 1.0 6.0 0.00 0.00 0.00 80 1019.6
20260831105038 58 347 1.0 8.0 0.00 0.00 0.00 80 1019.4
20260831104607 58 347 3.0 8.0 0.00 0.00 0.00 80 1019.6
20260831104038 58 347 2.0 5.0 0.00 0.00 0.00 81 1019.5
20260831103537 58 347 1.0 4.0 0.00 0.00 0.00 79 1019.5
20260831103058 58 0 0.0 2.0 0.00 0.00 0.00 79 1019.5
20260831102537 58 347 0.0 2.0 0.00 0.00 0.00 78 1019.4
20260831102039 58 347 0.0 1.0 0.00 0.00 0.00 78 1019.2
20260831101558 59 0 0.0 3.0 0.00 0.00 0.00 78 1019.3
20260831101039 59 0 0.0 4.0 0.00 0.00 0.00 77 1019.3
20260831100539 59 347 0.0 4.0 0.00 0.00 0.00 77 1019.2
20260831100116 59 0 2.0 4.0 0.00 0.00 0.00 76 1019.1
20260831095537 59 347 1.0 3.0 0.00 0.00 0.00 77 1019.0
20260831095037 59 0 0.0 2.0 0.00 0.00 0.00 77 1019.1
20260831094600 59 0 0.0 3.0 0.00 0.00 0.00 78 1018.9
20260831094039 59 347 0.0 3.0 0.00 0.00 0.00 79 1019.1
20260831093539 59 0 1.0 6.0 0.00 0.00 0.00 80 1019.1
20260831093104 59 347 1.0 6.0 0.00 0.00 0.00 79 1019.0
20260831092540 59 347 2.0 6.0 0.00 0.00 0.00 78 1019.1
20260831092039 60 0 1.0 4.0 0.00 0.00 0.00 78 1018.9
20260831091557 60 15 0.0 3.0 0.00 0.00 0.00 78 1019.0
20260831091039 60 0 1.0 3.0 0.00 0.00 0.00 77 1018.8
20260831090539 60 67 0.0 1.0 0.00 0.00 0.00 77 1018.8
20260831085539 61 0 0.0 1.0 0.00 0.00 0.00 75 1018.8
20260831085038 61 66 0.0 1.0 0.00 0.00 0.00 75 1018.9
20260831084636 61 0 0.0 1.0 0.00 0.00 0.00 75 1019.0
20260831084037 61 0 0.0 2.0 0.00 0.00 0.00 75 1018.8
20260831083537 61 0 0.0 4.0 0.00 0.00 0.00 76 1018.9
20260831083058 61 65 0.0 4.0 0.00 0.00 0.00 76 1018.9
20260831082538 61 64 2.0 4.0 0.00 0.00 0.00 77 1018.8
20260831082040 61 0 0.0 1.0 0.00 0.00 0.00 75 1018.7
20260831081556 61 0 0.0 1.0 0.00 0.00 0.00 75 1018.7
20260831081038 61 0 0.0 1.0 0.00 0.00 0.00 75 1018.8
20260831080540 61 0 0.0 4.0 0.00 0.00 0.00 73 1018.7
20260831080113 61 0 0.0 4.0 0.00 0.00 0.00 74 1018.7
20260831075541 61 232 2.0 4.0 0.00 0.00 0.00 74 1018.8
20260831075041 62 262 0.0 2.0 0.00 0.00 0.00 73 1018.9
20260831074607 62 119 0.0 2.0 0.00 0.00 0.00 73 1018.7
20260831074038 62 0 0.0 2.0 0.00 0.00 0.00 71 1018.9
20260831073538 62 131 0.0 2.0 0.00 0.00 0.00 71 1019.1
20260831073058 62 131 0.0 2.0 0.00 0.00 0.00 71 1019.1
20260831072543 62 123 0.0 2.0 0.00 0.00 0.00 71 1019.0
20260831072038 62 0 0.0 2.0 0.00 0.00 0.00 71 1018.9
20260831071607 62 103 0.0 3.0 0.00 0.00 0.00 71 1019.0
20260831071039 62 0 1.0 8.0 0.00 0.00 0.00 71 1019.2
20260831070538 62 137 1.0 8.0 0.00 0.00 0.00 72 1019.2
20260831070101 63 45 3.0 8.0 0.00 0.00 0.00 72 1019.2
20260831065538 63 0 1.0 5.0 0.00 0.00 0.00 73 1019.1
20260831065037 63 342 2.0 4.0 0.00 0.00 0.00 72 1019.2
20260831064600 63 359 1.0 4.0 0.00 0.00 0.00 72 1019.3
20260831064037 64 275 0.0 4.0 0.00 0.00 0.00 71 1019.3
20260831063537 64 347 0.0 5.0 0.00 0.00 0.00 70 1019.1
20260831063101 64 0 0.0 5.0 0.00 0.00 0.00 69 1019.2
20260831062541 64 347 1.0 5.0 0.00 0.00 0.00 70 1019.4
20260831062038 64 0 0.0 8.0 0.00 0.00 0.00 70 1019.4
20260831061558 64 331 2.0 8.0 0.00 0.00 0.00 70 1019.4
20260831061038 64 356 0.0 4.0 0.00 0.00 0.00 71 1019.6
20260831060539 64 0 1.0 5.0 0.00 0.00 0.00 69 1019.5
20260831060105 64 167 1.0 6.0 0.00 0.00 0.00 68 1019.6
20260831055539 64 183 1.0 6.0 0.00 0.00 0.00 67 1019.6
20260831055039 64 116 2.0 6.0 0.00 0.00 0.00 67 1019.6
20260831054601 64 169 1.0 6.0 0.00 0.00 0.00 67 1019.7
20260831054039 64 246 2.0 6.0 0.00 0.00 0.00 67 1019.9
20260831053538 64 140 2.0 4.0 0.00 0.00 0.00 67 1019.8
20260831053114 64 134 0.0 2.0 0.00 0.00 0.00 67 1019.8
20260831052538 64 0 0.0 4.0 0.00 0.00 0.00 66 1019.8
20260831052037 64 0 1.0 4.0 0.00 0.00 0.00 67 1019.8
20260831051555 64 0 0.0 3.0 0.00 0.00 0.00 68 1019.7
20260831051038 64 0 0.0 2.0 0.00 0.00 0.00 72 1019.9
20260831050540 64 0 0.0 1.0 0.00 0.00 0.00 73 1019.9
20260831050120 64 0 0.0 0.0 0.00 0.00 0.00 71 1020.0
20260831045538 64 0 0.0 1.0 0.00 0.00 0.00 70 1019.9
20260831045038 64 0 0.0 1.0 0.00 0.00 0.00 70 1019.9
20260831044601 64 0 0.0 2.0 0.00 0.00 0.00 70 1020.1
20260831044037 64 0 0.0 2.0 0.00 0.00 0.00 69 1020.1
20260831043538 65 0 0.0 4.0 0.00 0.00 0.00 69 1020.1
20260831043100 65 0 1.0 4.0 0.00 0.00 0.00 68 1020.1
20260831042537 65 36 0.0 4.0 0.00 0.00 0.00 65 1020.0
20260831042037 65 66 0.0 1.0 0.00 0.00 0.00 64 1019.9
20260831041619 65 0 0.0 0.0 0.00 0.00 0.00 64 1019.8
20260831041038 65 0 0.0 0.0 0.00 0.00 0.00 65 1019.8
20260831040538 65 0 0.0 0.0 0.00 0.00 0.00 67 1019.7
20260831035541 65 0 0.0 1.0 0.00 0.00 0.00 65 1019.8
20260831035037 65 0 0.0 1.0 0.00 0.00 0.00 61 1019.9
20260831034600 65 0 0.0 0.0 0.00 0.00 0.00 62 1020.0
20260831034038 65 0 0.0 4.0 0.00 0.00 0.00 62 1020.0
20260831033541 65 0 0.0 5.0 0.00 0.00 0.00 63 1020.0
20260831033113 65 52 3.0 5.0 0.00 0.00 0.00 63 1019.9
20260831032539 65 0 0.0 4.0 0.00 0.00 0.00 66 1019.8
20260831032041 65 0 0.0 4.0 0.00 0.00 0.00 68 1019.8
20260831031556 65 347 1.0 5.0 0.00 0.00 0.00 70 1019.6
20260831031037 65 0 0.0 5.0 0.00 0.00 0.00 70 1019.5
20260831030538 65 347 0.0 2.0 0.00 0.00 0.00 68 1019.5
20260831030052 65 0 0.0 1.0 0.00 0.00 0.00 69 1019.5
20260831025538 65 0 0.0 1.0 0.00 0.00 0.00 71 1019.6
20260831025039 66 0 0.0 1.0 0.00 0.00 0.00 69 1019.5
20260831024604 66 0 0.0 1.0 0.00 0.00 0.00 67 1019.6
20260831024042 66 0 0.0 1.0 0.00 0.00 0.00 66 1019.3
20260831023537 66 0 0.0 1.0 0.00 0.00 0.00 67 1019.3
20260831023101 66 0 0.0 1.0 0.00 0.00 0.00 62 1019.2
20260831022537 67 0 0.0 1.0 0.00 0.00 0.00 63 1019.1
20260831022038 67 0 0.0 1.0 0.00 0.00 0.00 61 1018.8
20260831021555 67 347 0.0 2.0 0.00 0.00 0.00 60 1018.8
20260831021037 67 347 0.0 2.0 0.00 0.00 0.00 61 1018.8
20260831020541 68 0 0.0 2.0 0.00 0.00 0.00 61 1018.7
20260831020059 68 347 0.0 1.0 0.00 0.00 0.00 60 1018.7
20260831015538 68 0 0.0 1.0 0.00 0.00 0.00 59 1018.8
20260831015037 68 0 0.0 1.0 0.00 0.00 0.00 63 1018.6
20260831014604 69 0 0.0 1.0 0.00 0.00 0.00 64 1018.5
20260831014037 69 36 0.0 2.0 0.00 0.00 0.00 56 1018.5
20260831013537 69 0 0.0 2.0 0.00 0.00 0.00 56 1018.4
20260831013059 69 36 0.0 2.0 0.00 0.00 0.00 57 1018.3
20260831012539 70 36 0.0 2.0 0.00 0.00 0.00 56 1018.3
20260831012037 70 0 0.0 4.0 0.00 0.00 0.00 55 1018.3
20260831011554 70 27 1.0 4.0 0.00 0.00 0.00 56 1018.4
20260831011039 71 29 2.0 4.0 0.00 0.00 0.00 56 1018.5
20260831010538 71 15 1.0 3.0 0.00 0.00 0.00 53 1018.5
20260831010111 72 356 1.0 3.0 0.00 0.00 0.00 50 1018.4
20260831005538 72 114 0.0 1.0 0.00 0.00 0.00 55 1018.4
20260831005038 72 0 0.0 1.0 0.00 0.00 0.00 48 1018.3
20260831004606 72 0 0.0 3.0 0.00 0.00 0.00 48 1018.4
20260831004039 72 0 0.0 3.0 0.00 0.00 0.00 46 1018.4
20260831003540 72 94 0.0 2.0 0.00 0.00 0.00 46 1018.6
20260831003108 73 0 0.0 2.0 0.00 0.00 0.00 47 1018.6
20260831002538 73 96 0.0 2.0 0.00 0.00 0.00 49 1018.6
20260831002037 74 0 0.0 3.0 0.00 0.00 0.00 46 1018.7
20260831001558 74 0 0.0 3.0 0.00 0.00 0.00 46 1018.7
20260831001038 74 0 1.0 3.0 0.00 0.00 0.00 42 1018.8
20260831000538 74 0 0.0 2.0 0.00 0.00 0.00 44 1018.8
20260831000103 74 0 0.0 2.0 0.00 0.00 0.00 44 1018.8
20260830235541 74 0 0.0 3.0 0.00 0.00 0.00 47 1018.8
20260830235040 74 0 0.0 3.0 0.00 0.00 0.00 44 1018.8
20260830234607 74 39 1.0 3.0 0.00 0.00 0.00 43 1018.8
20260830234037 74 0 0.0 3.0 0.00 0.00 0.00 45 1018.8
20260830233540 75 121 0.0 5.0 0.00 0.00 0.00 42 1018.7
20260830233056 75 121 2.0 5.0 0.00 0.00 0.00 40 1018.5
20260830232538 75 154 1.0 4.0 0.00 0.00 0.00 40 1018.6
20260830232038 75 140 1.0 4.0 0.00 0.00 0.00 41 1018.5
20260830231611 75 135 1.0 4.0 0.00 0.00 0.00 40 1018.6
20260830231039 75 125 1.0 5.0 0.00 0.00 0.00 39 1018.7
20260830230537 75 0 1.0 5.0 0.00 0.00 0.00 40 1018.6
20260830230108 75 144 1.0 5.0 0.00 0.00 0.00 40 1018.5
20260830225537 74 0 0.0 3.0 0.00 0.00 0.00 42 1018.6
20260830225038 74 0 0.0 2.0 0.00 0.00 0.00 45 1018.7
20260830224609 74 0 0.0 9.0 0.00 0.00 0.00 45 1018.8
20260830224048 74 0 1.0 9.0 0.00 0.00 0.00 46 1018.8
20260830223537 74 18 5.0 9.0 0.00 0.00 0.00 46 1018.6
20260830223058 74 342 0.0 3.0 0.00 0.00 0.00 46 1019.1
20260830222540 74 51 0.0 3.0 0.00 0.00 0.00 42 1018.9
20260830222039 74 39 1.0 3.0 0.00 0.00 0.00 42 1018.9
20260830221601 74 0 1.0 3.0 0.00 0.00 0.00 47 1018.8
20260830221037 75 85 1.0 3.0 0.00 0.00 0.00 48 1018.8
20260830220538 75 0 0.0 5.0 0.00 0.00 0.00 43 1018.9
20260830220100 75 0 0.0 5.0 0.00 0.00 0.00 43 1019.1
20260830215537 76 192 2.0 5.0 0.00 0.00 0.00 43 1019.4
20260830215038 76 0 0.0 5.0 0.00 0.00 0.00 43 1019.3
20260830214603 76 245 2.0 4.0 0.00 0.00 0.00 44 1019.5
20260830214038 75 0 0.0 6.0 0.00 0.00 0.00 44 1019.4
20260830213536 75 0 1.0 6.0 0.00 0.00 0.00 46 1019.4
20260830213056 74 236 1.0 3.0 0.00 0.00 0.00 47 1019.5
20260830212538 74 175 0.0 8.0 0.00 0.00 0.00 47 1019.6
20260830212038 74 194 1.0 8.0 0.00 0.00 0.00 46 1019.8
20260830211557 74 199 1.0 7.0 0.00 0.00 0.00 48 1019.8
20260830211038 74 189 0.0 7.0 0.00 0.00 0.00 47 1019.9
20260830210538 75 292 1.0 6.0 0.00 0.00 0.00 48 1020.2
20260830210119 75 0 1.0 4.0 0.00 0.00 0.00 48 1020.1
20260830205537 75 0 1.0 4.0 0.00 0.00 0.00 47 1019.9
20260830205037 76 289 1.0 7.0 0.00 0.00 0.00 45 1019.5
20260830204609 76 285 1.0 7.0 0.00 0.00 0.00 45 1019.7
20260830204041 76 294 2.0 7.0 0.00 0.00 0.00 45 1019.9
20260830203538 76 304 2.0 9.0 0.00 0.00 0.00 45 1019.8
20260830203057 76 242 2.0 9.0 0.00 0.00 0.00 46 1019.7
20260830202538 76 279 1.0 8.0 0.00 0.00 0.00 47 1019.8
20260830202037 76 308 2.0 8.0 0.00 0.00 0.00 46 1019.7
20260830201558 76 297 3.0 11.0 0.00 0.00 0.00 46 1019.7
20260830201037 76 322 2.0 11.0 0.00 0.00 0.00 45 1019.6
20260830200537 76 302 3.0 11.0 0.00 0.00 0.00 44 1019.6
20260830200113 75 314 2.0 7.0 0.00 0.00 0.00 49 1019.5
20260830195537 74 287 2.0 7.0 0.00 0.00 0.00 47 1019.3
20260830195037 74 325 1.0 6.0 0.00 0.00 0.00 49 1018.9
20260830194635 74 308 0.0 8.0 0.00 0.00 0.00 52 1018.9
20260830194037 75 312 2.0 8.0 0.00 0.00 0.00 52 1018.8
20260830193536 75 311 1.0 10.0 0.00 0.00 0.00 47 1018.3
20260830193052 75 33 2.0 10.0 0.00 0.00 0.00 45 1017.9
20260830192537 74 333 4.0 10.0 0.00 0.00 0.00 51 1018.4
20260830192037 73 308 3.0 13.0 0.00 0.00 0.00 52 1018.6
20260830191603 72 261 4.0 13.0 0.00 0.00 0.00 56 1018.7
20260830191038 71 306 4.0 14.0 0.00 0.00 0.00 59 1018.8
20260830190538 71 306 6.0 19.0 0.00 0.00 0.00 59 1018.9
20260830190057 72 296 6.0 25.0 0.00 0.00 0.00 58 1018.9
20260830185538 75 332 8.0 25.0 0.00 0.00 0.00 52 1018.9
20260830185037 78 297 11.0 25.0 0.00 0.00 0.00 38 1018.8
20260830184555 80 273 0.0 4.0 0.00 0.00 0.00 41 1018.3
20260830184037 80 139 0.0 6.0 0.00 0.00 0.00 42 1017.9
20260830183537 80 122 1.0 6.0 0.00 0.00 0.00 40 1017.7
20260830183115 80 88 2.0 6.0 0.00 0.00 0.00 38 1017.7
20260830182537 80 57 1.0 6.0 0.00 0.00 0.00 39 1017.7
20260830182038 80 120 2.0 6.0 0.00 0.00 0.00 36 1017.6
20260830181600 80 315 0.0 3.0 0.00 0.00 0.00 36 1017.6
20260830181041 80 316 0.0 4.0 0.00 0.00 0.00 44 1017.8
20260830180538 80 322 0.0 4.0 0.00 0.00 0.00 40 1017.7
20260830180107 79 277 0.0 4.0 0.00 0.00 0.00 45 1017.8
20260830175537 79 0 1.0 4.0 0.00 0.00 0.00 41 1017.9
20260830175037 79 0 0.0 8.0 0.00 0.00 0.00 37 1017.9
20260830174558 78 59 2.0 8.0 0.00 0.00 0.00 37 1017.9
20260830174036 79 30 1.0 7.0 0.00 0.00 0.00 38 1017.9
20260830173538 79 0 1.0 5.0 0.00 0.00 0.00 41 1018.1
20260830173127 78 0 0.0 5.0 0.00 0.00 0.00 45 1018.2
20260830172538 78 50 2.0 5.0 0.00 0.00 0.00 42 1018.2
20260830172038 77 77 1.0 7.0 0.00 0.00 0.00 46 1018.3
20260830171603 76 37 2.0 7.0 0.00 0.00 0.00 43 1018.4
20260830171038 76 77 2.0 6.0 0.00 0.00 0.00 43 1018.5
20260830170537 76 43 0.0 4.0 0.00 0.00 0.00 47 1018.4
20260830170100 75 352 2.0 4.0 0.00 0.00 0.00 48 1018.4
20260830165539 76 42 0.0 5.0 0.00 0.00 0.00 45 1018.4
20260830165037 76 0 0.0 5.0 0.00 0.00 0.00 46 1018.4
20260830164601 75 235 2.0 8.0 0.00 0.00 0.00 47 1018.4
20260830164038 74 315 1.0 9.0 0.00 0.00 0.00 48 1018.6
20260830163538 74 322 2.0 9.0 0.00 0.00 0.00 47 1018.5
20260830163102 74 330 3.0 9.0 0.00 0.00 0.00 49 1018.5
20260830162537 74 329 2.0 9.0 0.00 0.00 0.00 50 1018.6
20260830162037 74 291 1.0 8.0 0.00 0.00 0.00 49 1018.7
20260830161625 74 292 2.0 10.0 0.00 0.00 0.00 48 1018.7
20260830161037 74 288 2.0 10.0 0.00 0.00 0.00 49 1018.8
20260830160537 74 300 3.0 8.0 0.00 0.00 0.00 49 1019.0
20260830160059 74 327 1.0 9.0 0.00 0.00 0.00 53 1018.9
20260830155537 73 252 3.0 9.0 0.00 0.00 0.00 51 1018.9
20260830155037 73 316 2.0 8.0 0.00 0.00 0.00 52 1019.1
20260830154554 72 323 2.0 6.0 0.00 0.00 0.00 54 1019.1
20260830154038 71 306 1.0 6.0 0.00 0.00 0.00 58 1019.2
20260830153537 70 342 2.0 7.0 0.00 0.00 0.00 60 1019.4
20260830153102 70 299 2.0 9.0 0.00 0.00 0.00 59 1019.5
20260830152538 69 6 3.0 9.0 0.00 0.00 0.00 61 1019.6
20260830152039 69 305 1.0 3.0 0.00 0.00 0.00 63 1019.5
20260830151555 69 0 0.0 2.0 0.00 0.00 0.00 67 1019.3
20260830151037 68 0 0.0 0.0 0.00 0.00 0.00 65 1019.1
20260830150539 68 0 0.0 0.0 0.00 0.00 0.00 66 1018.8
20260830150118 68 0 0.0 1.0 0.00 0.00 0.00 66 1018.8
20260830145537 67 0 0.0 1.0 0.00 0.00 0.00 65 1018.8
20260830145035 67 0 0.0 1.0 0.00 0.00 0.00 66 1018.8
20260830144603 67 0 0.0 1.0 0.00 0.00 0.00 67 1018.7
20260830144034 66 0 0.0 1.0 0.00 0.00 0.00 68 1018.8
20260830143536 66 0 0.0 0.0 0.00 0.00 0.00 69 1018.7
20260830143108 65 0 0.0 0.0 0.00 0.00 0.00 68 1018.8
20260830142538 65 0 0.0 1.0 0.00 0.00 0.00 69 1018.6
20260830142038 65 0 0.0 2.0 0.00 0.00 0.00 68 1018.6
20260830141602 65 0 0.0 3.0 0.00 0.00 0.00 68 1018.5
20260830141034 65 0 0.0 3.0 0.00 0.00 0.00 68 1018.6
20260830140537 65 0 0.0 1.0 0.00 0.00 0.00 68 1018.7
20260830140101 65 0 0.0 3.0 0.00 0.00 0.00 68 1018.6
20260830135537 65 0 0.0 5.0 0.00 0.00 0.00 67 1018.5
20260830135035 65 121 2.0 5.0 0.00 0.00 0.00 66 1018.4
20260830134557 65 124 1.0 4.0 0.00 0.00 0.00 67 1018.4
20260830134037 65 129 0.0 4.0 0.00 0.00 0.00 65 1018.3
20260830133537 65 165 0.0 3.0 0.00 0.00 0.00 65 1018.3
20260830133059 65 208 0.0 3.0 0.00 0.00 0.00 64 1018.3
20260830132537 65 0 0.0 3.0 0.00 0.00 0.00 63 1018.4
20260830132037 65 125 0.0 3.0 0.00 0.00 0.00 63 1018.3
20260830131607 65 0 0.0 3.0 0.00 0.00 0.00 64 1018.2
20260830131038 65 125 1.0 3.0 0.00 0.00 0.00 64 1018.2
20260830130537 65 129 0.0 3.0 0.00 0.00 0.00 64 1018.2
20260830125535 65 131 1.0 4.0 0.00 0.00 0.00 64 1017.9
20260830125034 65 0 1.0 3.0 0.00 0.00 0.00 64 1017.9
20260830124559 65 0 0.0 8.0 0.00 0.00 0.00 64 1018.0
20260830124038 65 0 0.0 8.0 0.00 0.00 0.00 64 1017.9
20260830123536 65 146 4.0 8.0 0.00 0.00 0.00 63 1017.6